[ hide orbit diagram ]
For accurate long-term ephemerides, please instead use our Horizons system.This orbit viewer was implemented using two-body methods, and hence should not be used for determining accurate long-term trajectories (over several years or decades) or planetary encounter circumstances.
Orbital Elements at Epoch 2459000.5 (2020-May-31.0) TDB
Reference: JPL 22 (heliocentric ecliptic J2000)
Element | Value | Uncertainty (1-sigma) | Units |
e | .0791573279476885 | 4.1777e-08 | |
a | 2.715429898874874 | 1.6555e-08 | au |
q | 2.500483723850677 | 1.1432e-07 | au |
i | 2.818796123230295 | 5.2253e-06 | deg |
node | 9.114036216046257 | 8.4471e-05 | deg |
peri | 66.33712577227337 | 9.092e-05 | deg |
M | 154.2588210011055 | 3.4291e-05 | deg |
tp | 2458300.168231612906 (2018-Jun-30.66823161) | 0.00015304 | TDB |
period | 1634.392347764327 4.47 | 1.4947e-05 4.092e-08 | d yr |
n | .2202653484595918 | 2.0144e-09 | deg/d |
Q | 2.930376073899071 | 1.7866e-08 | au |
|
| | Orbit Determination Parameters
Additional Information
|
[ show covariance matrix ]
Physical Parameter Table
Parameter |
Symbol |
Value |
Units |
Sigma |
Reference |
Notes |
absolute magnitude |
H |
15.7 |
|
n/a |
MPO469213 |
|
|
117317 (2004 VL59) Discovered 2004-Nov-09 by CSS at Catalina |
Reference: 20051019/Numbers.arc | Last Updated: 2005-10-26 |
|
[ show close-approach data ]
|